Regional Weather Roundup
Issued by NWS

Home | Current Version | Previous Version | Graphics & Text | Print | Product List | Glossary On
Versions: 1 2 3 4 5 6 7 8 9 10 11 12 13 14 15 16 17 18 19 20 21 22 23 24 25 26 27 28 29 30 31 32 33 34 35 36 37 38 39 40 41 42 43 44 45 46 47 48 49 50
000
ASUS43 KFSD 311002
RWRSD

WEATHER ROUNDUP FOR SOUTH DAKOTA
NATIONAL WEATHER SERVICE SIOUX FALLS SD
500 AM CDT MON AUG 31 2015

NOTE: "FAIR" INDICATES FEW OR NO CLOUDS BELOW 12,000 FEET WITH NO
SIGNIFICANT WEATHER AND/OR OBSTRUCTIONS TO VISIBILITY.


SDZ001>005-009-010-012>017-311100-
NORTHWEST AND NORTH CENTRAL SOUTH DAKOTA

CITY           SKY/WX    TMP DP  RH WIND       PRES   REMARKS
FAITH            N/A     73  52  47 NW13      29.70
MOBRIDGE       CLOUDY    74  57  55 VRB7      29.64R
$$

SDZ012>016-024>037-041>051-057-063-072>074-311100-
SOUTHWEST AND SOUTH CENTRAL SOUTH DAKOTA

CITY           SKY/WX    TMP DP  RH WIND       PRES   REMARKS
RAPID CTY ARPT CLOUDY    74  51  44 W10       29.77F
PIERRE         MOCLDY    71  57  61 SE10      29.67F
CUSTER         MOCLDY    67  44  43 W5        29.97S
ELLSWORTH AFB  CLOUDY    77  52  41 W10       29.77R
PHILIP         CLOUDY    70  53  54 W6        29.70S
PINE RIDGE     CLOUDY    71  48  43 NW6       29.85R
WINNER         FAIR      74  55  51 S23G36    29.76S
$$

SDZ004>011-016>023-039-040-311100-
NORTHEAST SOUTH DAKOTA

CITY           SKY/WX    TMP DP  RH WIND       PRES   REMARKS
ABERDEEN       CLEAR     67  62  84 S15G26    29.70F
WATERTOWN      CLEAR     64  61  90 S14       29.81F
BROOKINGS      CLEAR     64  61  88 S10G16    29.89R
$$

SDZ017-020-022-023-036>040-048>070-311100-
SOUTHEAST SOUTH DAKOTA

CITY           SKY/WX    TMP DP  RH WIND       PRES   REMARKS
SIOUX FALLS    PTCLDY    65  63  93 S10       29.89S
HURON          CLEAR     66  63  90 S12       29.77S
CHAMBERLAIN    CLEAR     70  59  66 S10G24    29.77S
MITCHELL       CLEAR     65  63  93 SE9       29.82F
YANKTON        CLEAR     66  63  88 S5        29.88S
$$

ABBREVIATIONS USED IN REMARKS
   TC - TEMPERATURE IN CELSIUS
  WCI - WIND CHILL INDEX
   HX - HEAT INDEX
  VSB - VISIBILITY



USA.gov is the U.S. government's official web portal to all federal, state and local government web resources and services.